Regional Weather Roundup
Issued by NWS State College, PA

Home | Current Version | Previous Version | Text Only | Print | Product List | Glossary Off
Versions: 1 2 3 4 5 6 7 8 9 10 11 12 13 14 15 16 17 18 19 20 21 22 23 24 25 26 27 28 29 30 31 32 33 34 35 36 37 38 39 40 41 42 43 44 45 46 47 48 49 50

000
ASUS41 KCTP 292110
RWRCTP

REGIONAL WEATHER ROUNDUP
NATIONAL WEATHER SERVICE STATE COLLEGE PA
500 PM EDT SAT AUG 29 2015

Note: "fair" indicates few or no clouds below 12,000 feet with no
significant weather and/or obstructions to visibility.

* = STATION THAT DOES NOT REPORT PRECIPITATION /E.G. RAIN...SNOW...ETC/
    THUNDER OR FOG.

PAZ002>004-007>009-013>016-020>023-029>032-292200-
WESTERN PENNSYLVANIA

CITY           SKY/WX    TMP DP  RH WIND       PRES   REMARKS
ERIE           FAIR      77  55  46 N6        30.10S
MEADVILLE      PTSUNNY   79  58  48 SW6       30.12F
FRANKLIN*      FAIR      79  57  47 S5        30.15F
NEW CASTLE     FAIR      82  62  50 CALM      30.10F
BEAVER COUNTY  SUNNY     84  61  45 S5        30.11F
BUTLER*        FAIR      82  61  47 SW5       30.13F
PITTSBURGH INT FAIR      82  59  45 S8        30.11F
PITTSBURGH     CLOUDY    82  53  36 SW7       30.12S
INDIANA*       MOSUNNY   82  57  42 VRB7      30.16F
LATROBE        MOSUNNY   82  55  39 W7        30.13F
WASHINGTON CO* FAIR      82  61  47 SW3       30.13F
$$

PAZ004>006-010>012-017>019-024>028-033>037-041-042-045-046-049>053-292200-
CENTRAL PENNSYLVANIA

CITY           SKY/WX    TMP DP  RH WIND       PRES   REMARKS
BRADFORD       FAIR      77  51  40 S7        30.16F
DUBOIS         FAIR      80  54  40 SW10      30.15F
CLEARFIELD     FAIR      81  54  39 SW6       30.15F
JOHNSTOWN      FAIR      79  53  40 NW7       30.18F
ALTOONA        FAIR      84  52  33 NW6       30.15F
STATE COLLEGE  MOSUNNY   81  55  41 NW8       30.14F
WILLIAMSPORT   FAIR      83  60  45 VRB5      30.10S
SELINSGROVE    FAIR      84  59  42 VRB5      30.11F
FT INDIANTOWN  FAIR      84  62  47 NW2       30.11S
CAPITAL CITY   FAIR      84  61  45 W6        30.10F
HARRISBURG     PTSUNNY   86  64  47 S3        30.10S
YORK           FAIR      84  63  49 CALM      30.11F
$$

PAZ038>040-043-044-047-048-054-055-060>062-067>071-292200-
EASTERN PENNSYLVANIA

CITY           SKY/WX    TMP DP  RH WIND       PRES   REMARKS
SCRANTON       PTSUNNY   81  61  50 S6        30.11F
MOUNT POCONO   FAIR      76  61  59 S12       30.17F
ALLENTOWN      FAIR      82  62  50 SW9       30.11F
QUAKERTOWN*    FAIR      82  63  51 SW7       30.13F
READING        PTSUNNY   84  63  49 W8        30.10F
LANCASTER      FAIR      81  63  54 W5        30.11F
COATESVILLE    FAIR      81  64  57 S6        30.14F
POTTSTOWN      FAIR      82  62  50 SW9       30.13F
BLUE BELL      FAIR      84  64  51 SW3       30.11F
DOYLESTOWN     FAIR      80  60  50 VRB6      30.11F
WILLOW GROVE   NOT AVBL
NORTH PHILA    PTSUNNY   86  58  38 SW12G17   30.12F
PHILADELPHIA   FAIR      87  60  40 SW12      30.12F
$$


USA.gov is the U.S. government's official web portal to all federal, state and local government web resources and services.